Location: Newark
(51.3318°N, 0.0053°E)
Time: 16:00:35
(UTC+00:00)

DIWATA 2B (PO-101) - Pass Details

Date: 05 July 2022
Orbit: 583 x 599 km, 98.0° (Epoch: 07 August)

Event Time Altitude Azimuth Distance (km) Brightness Sun altitude
Exits shadow 00:36:34 - 124° (SE) 2,435 ? -15.5°
Reaches altitude 10° 00:37:58 10° 115° (ESE) 1,942 ? -15.5°
Maximum altitude 00:41:21 24° 62° (ENE) 1,264 ? -15.4°
Drops below altitude 10° 00:44:44 10° 9° (N) 1,952 ? -15.3°
Sets 00:47:13 0° 355° (N) 2,858 ? -15.3°
